Vorticity
6 5 5 5 5 6 7 8 8 8 6 6 8 9 7 5 3 2 2 3 5 7 6 5 4 3 3 3 3 3 4 4 7 6 2 3 3 1 3 4 2 3 5 6 7 6 4 2 1 1 1 1 3 5 7 9 9 11 10 6 4 5 6 5 5 5 5 6 6 6 7 6 5 5 4 4 5 4 4 5 6 8 10 10 11 11 11 11
6 6 6 6 5 5 6 6 7 8 8 7 6 8 10 8 5 4 3 2 3 5 7 6 5 4 4 3 2 3 3 4 6 6 4 3 3 1 1 2 2 1 3 6 6 4 2 1 1 1 0 -0 1 3 5 5 9 14 8 3 6 5 6 6 4 5 5 6 8 8 7 6 6 6 6 6 6 6 7 6 5 4 3 5 7 8 10 11
6 6 6 7 6 5 5 5 6 7 8 9 7 6 8 9 9 6 4 3 2 3 5 6 6 5 5 4 3 2 2 3 4 6 5 4 3 1 0 0 2 1 2 6 5 3 1 0 2 2 1 3 2 2 5 4 6 11 8 6 7 4 5 7 5 5 5 5 7 8 7 6 6 7 6 6 7 7 8 12 14 12 6 3 3 3 5 7
4 5 6 6 6 7 6 5 5 6 7 8 8 8 6 7 9 9 7 4 3 3 2 4 6 6 6 6 4 2 2 2 4 6 6 5 4 2 2 3 3 3 3 6 4 2 1 1 3 3 2 4 2 1 4 5 5 7 7 7 6 5 4 4 5 5 4 5 6 6 7 7 7 7 6 7 5 -0 -0 8 17 23 20 11 5 3 2 4
4 4 5 6 6 6 7 7 6 5 5 6 8 8 8 7 7 9 9 7 5 4 3 3 4 5 6 7 7 5 2 1 3 6 6 6 7 4 2 5 10 10 6 5 3 2 2 0 -0 1 3 3 3 3 3 2 2 3 3 4 5 5 4 2 3 5 5 5 5 6 6 6 7 6 7 9 4 -6 -8 -0 9 19 26 23 14 6 2 3
4 4 4 4 5 5 6 6 7 6 5 5 5 7 8 8 7 7 8 9 8 6 5 3 3 4 4 6 8 6 3 1 2 5 6 5 9 8 3 6 12 11 6 4 4 3 0 -0 0 1 4 5 5 5 3 1 1 2 3 3 4 4 5 4 1 2 6 6 6 5 5 5 4 4 6 9 7 0 -3 0 5 11 20 26 21 13 7 5
5 5 4 4 4 5 5 5 6 7 7 6 5 5 6 7 8 8 7 8 8 9 8 5 4 3 3 4 5 6 5 2 1 4 6 5 7 10 6 6 12 11 7 5 4 2 -0 1 2 3 5 6 5 4 4 5 4 5 3 1 2 3 4 6 4 1 1 5 8 6 5 4 3 2 3 5 7 6 5 5 7 9 13 20 23 18 9 2
6 6 5 5 4 4 4 5 5 6 6 7 6 6 5 5 7 8 8 7 7 9 9 9 7 4 4 4 4 5 4 3 2 4 6 6 6 10 9 7 11 12 6 4 3 0 1 3 3 3 4 4 4 4 3 3 4 5 3 1 2 2 2 5 6 4 2 4 6 7 6 5 5 4 3 3 5 5 6 6 7 9 8 8 9 3 -5 -4
6 6 6 5 5 4 4 4 4 5 5 6 6 7 6 5 5 6 7 8 8 7 8 9 9 8 6 4 5 4 3 3 3 3 5 6 5 7 10 8 10 11 6 4 2 1 3 5 4 3 5 5 3 -0 -0 2 4 4 3 2 1 1 2 2 3 4 6 6 5 6 6 6 6 5 5 5 6 6 5 4 4 7 7 4 -1 -5 -4 2
5 5 6 6 5 5 5 4 4 4 4 5 5 6 7 6 6 6 6 6 8 7 7 8 8 10 9 6 5 4 4 3 3 3 4 6 5 5 10 8 7 8 7 3 2 4 4 4 5 4 5 4 3 3 4 5 3 3 3 3 3 2 2 1 1 1 3 8 8 5 6 7 6 4 5 6 7 7 5 2 2 4 6 6 4 4 5 6
4 4 4 5 5 5 5 5 4 4 4 4 4 5 5 6 6 6 6 6 6 7 7 7 7 8 9 9 8 6 5 3 3 3 2 5 4 5 8 9 7 7 7 4 2 5 3 3 5 1 2 -0 -0 5 6 6 4 2 3 2 3 3 2 1 -0 -1 0 5 9 9 7 6 6 3 3 6 7 8 5 2 2 2 4 5 5 5 5 7
3 3 3 3 4 4 4 4 5 5 4 4 4 4 4 5 6 6 6 6 6 6 6 7 7 7 8 9 10 9 7 5 4 3 3 4 4 5 5 9 11 8 7 5 3 4 1 5 4 -1 2 -1 -0 6 4 5 4 3 3 2 1 2 3 3 0 -0 -1 1 5 8 8 5 4 5 5 6 7 6 5 4 4 4 4 3 4 6 9 10
3 2 2 2 2 2 3 3 4 4 5 4 4 4 4 4 4 5 6 6 6 6 5 6 6 7 7 7 10 8 7 10 7 4 4 2 4 6 4 7 12 9 7 6 4 2 2 7 3 -1 3 0 1 6 3 4 4 4 4 1 1 0 1 4 3 2 -0 -0 1 3 7 6 4 5 9 9 5 5 5 4 4 5 5 4 5 7 6 3
3 3 3 2 2 1 1 1 2 3 5 4 4 4 5 5 5 5 5 5 6 6 6 6 6 7 7 6 7 6 7 11 9 8 5 3 4 6 4 5 9 11 9 6 4 2 4 6 2 -0 1 -1 2 6 4 5 4 3 4 2 1 1 1 3 5 5 3 3 0 -1 3 6 6 6 7 7 4 4 4 4 4 5 8 8 8 5 0 -2
7 5 4 4 3 3 2 2 1 3 4 3 4 5 5 5 5 5 5 5 5 6 6 6 6 6 8 6 5 6 8 9 10 10 8 6 4 4 6 3 4 11 12 7 2 3 5 4 2 0 -1 1 3 2 1 2 0 -1 4 6 3 1 2 2 3 3 3 6 5 3 1 2 6 7 4 2 2 3 1 2 3 3 6 8 11 8 3 1
13 11 9 7 7 5 4 3 3 4 4 3 4 4 4 4 6 6 5 6 5 6 6 6 6 6 7 6 6 6 7 7 9 11 11 10 6 4 5 3 3 7 11 9 3 4 5 2 1 0 -0 1 -0 1 3 4 2 1 3 6 5 2 3 3 3 2 0 3 5 7 7 1 1 5 5 0 -3 -1 -1 -2 0 1 2 5 8 9 6 4
14 14 13 13 12 10 9 7 6 7 5 3 4 5 4 3 5 6 6 6 6 7 6 6 7 7 7 6 5 5 5 7 8 10 12 12 10 6 5 5 3 2 7 11 8 6 2 1 2 1 1 -1 -0 4 -1 -3 1 4 4 3 2 1 3 2 -1 1 1 2 3 5 9 6 1 2 6 5 -2 -4 -1 -0 1 2 2 3 4 6 5 3
12 12 13 13 13 13 13 12 11 12 10 7 6 6 4 3 4 4 5 6 7 8 7 6 6 6 8 8 6 6 6 6 7 9 11 12 11 10 7 4 3 2 4 7 9 7 2 2 0 1 3 -1 4 -1 -14 -3 8 6 2 1 5 4 3 3 -1 -0 1 2 3 2 6 9 6 3 5 9 5 -1 1 3 4 4 5 4 4 4 3 1
10 11 11 11 11 12 12 13 14 15 14 12 10 9 6 5 4 3 4 5 6 7 7 8 8 6 7 8 8 7 7 7 8 9 10 11 11 12 10 6 5 3 2 5 8 6 7 6 -1 2 5 -3 3 -5 -14 8 14 4 1 1 5 3 1 4 1 0 -0 1 3 2 7 8 6 7 5 7 8 3 3 5 4 4 6 7 6 4 3 3
8 9 11 11 10 10 10 10 12 14 15 15 14 13 11 10 8 5 5 4 4 5 6 7 8 7 7 7 8 7 8 9 9 9 10 11 11 13 11 9 7 4 5 7 2 3 11 10 3 5 2 -5 1 -2 -5 8 7 -1 -1 -2 2 2 3 4 -0 0 1 3 2 0 8 9 6 7 4 5 6 3 3 4 5 5 5 7 7 6 4 3
6 8 10 11 10 10 10 9 10 12 13 14 15 15 15 14 11 10 8 5 4 4 5 7 7 8 8 7 7 6 7 9 10 11 11 10 10 12 14 12 9 6 7 4 -4 3 8 8 12 7 -1 -2 1 1 -1 3 4 -2 -4 -2 -1 1 6 1 -3 0 3 8 5 -1 5 8 5 4 2 5 6 5 5 3 6 6 3 2 4 7 5 3
4 7 9 10 10 10 10 8 9 11 11 13 14 14 15 15 14 13 11 8 8 6 4 5 6 7 6 6 7 7 9 11 11 11 9 10 10 10 13 15 13 7 6 3 -0 5 2 4 16 9 2 4 1 2 0 -2 1 -2 -3 -1 -5 2 9 1 -2 2 3 8 4 -2 1 1 2 2 1 5 6 7 7 5 8 7 0 -2 -0 3 4 3
3 6 8 10 10 10 10 9 9 10 10 11 13 14 14 14 15 15 14 11 10 10 7 5 5 7 6 6 9 9 11 11 10 10 9 12 11 8 11 15 16 11 8 9 4 4 3 3 9 9 9 8 -1 2 3 -3 -4 -5 -2 -2 -7 4 8 -1 3 6 3 4 0 2 6 -1 -2 1 4 8 7 8 9 6 8 5 -1 -1 0 2 2 1
2 5 8 10 10 10 10 10 9 9 9 10 11 13 12 13 14 15 16 14 13 13 12 9 6 8 7 8 11 11 10 8 8 11 11 12 11 9 12 13 13 13 14 14 5 2 2 -1 3 11 13 6 -2 3 4 -1 -4 -3 2 -2 -8 2 4 -0 3 -0 -2 1 -2 3 9 4 -1 -1 4 10 7 4 7 6 7 4 -1 -0 2 3 3 0
2 2 6 9 10 11 11 10 10 8 8 10 11 13 12 11 12 13 14 14 15 15 15 13 10 10 11 12 13 10 10 10 10 11 10 12 12 10 10 9 11 16 16 14 8 5 1 -1 8 12 9 6 3 3 2 0 -0 -0 3 -1 -4 3 3 2 6 4 3 6 1 0 5 6 5 5 5 10 9 2 3 5 4 4 3 1 3 3 3 2
2 1 3 8 11 11 11 10 9 8 8 9 11 12 12 11 11 11 12 12 14 14 15 15 14 13 12 12 13 11 10 9 8 10 10 12 12 10 11 10 11 12 12 16 15 8 0 2 12 9 5 7 5 3 1 2 4 0 1 5 7 8 1 -2 6 7 2 1 0 -2 1 3 5 8 6 8 10 2 2 5 0 3 8 4 3 4 3 3
3 2 2 5 10 12 12 11 9 8 7 8 10 11 11 10 10 11 10 10 13 14 13 12 13 16 14 10 10 10 10 8 8 10 11 11 11 11 11 9 10 8 10 19 19 9 5 6 10 8 6 6 4 5 3 2 5 -1 -0 9 10 6 1 -3 1 1 -6 -4 -1 -3 0 5 4 7 8 9 13 5 -0 2 -0 3 8 5 5 6 2 3
3 2 1 3 8 12 14 12 10 9 7 8 10 10 10 9 10 11 10 9 13 15 14 12 11 13 15 13 10 9 9 10 11 11 10 11 11 11 11 9 9 8 9 17 16 10 11 10 7 6 7 6 5 5 1 1 4 -2 -0 8 5 2 2 0 1 2 -2 -0 7 6 4 5 2 3 3 3 12 10 -0 0 3 3 6 5 3 2 1 3
3 2 1 2 5 11 14 13 11 9 7 8 9 10 9 9 10 10 9 9 12 13 13 14 11 9 11 13 14 13 10 9 11 11 10 11 11 12 13 10 8 7 7 14 13 7 11 16 12 7 7 8 8 4 0 3 3 -3 1 6 1 1 3 0 1 4 0 -1 4 7 7 6 3 2 0 4 12 8 -2 -0 3 3 5 5 1 -0 1 1
3 2 1 2 3 9 13 14 12 9 7 7 8 9 8 9 9 8 9 11 11 11 13 14 12 9 8 9 13 13 12 12 11 11 11 11 12 12 13 11 9 8 6 10 11 3 9 22 20 12 10 11 8 6 6 5 -0 -4 2 6 -0 -0 3 2 4 3 1 4 3 1 4 3 2 2 -3 6 19 11 0 0 -0 -0 5 6 3 1 2 2
4 2 1 1 3 6 11 15 14 9 7 6 8 10 8 8 9 7 10 11 9 10 13 14 13 12 8 6 8 8 10 12 11 11 10 10 11 11 13 12 10 11 7 8 11 4 8 20 18 14 15 12 9 10 10 5 -0 -2 2 4 -2 -4 1 2 2 -1 -3 3 1 1 7 4 4 5 -6 1 18 14 5 1 -3 -0 5 7 4 0 2 4
4 3 1 1 2 4 8 14 14 10 8 7 7 9 8 8 9 8 9 10 9 10 12 13 11 11 10 8 8 7 8 10 11 12 11 10 11 11 12 11 11 14 12 11 13 7 9 15 14 17 20 16 11 13 11 3 1 -0 -2 2 -1 -3 2 1 -1 3 7 7 1 3 10 4 0 -1 -5 5 14 12 9 3 0 1 3 8 5 -1 1 1
4 3 2 1 1 2 5 12 15 11 9 7 7 9 8 6 8 9 8 9 10 10 10 10 8 8 9 9 10 9 8 9 10 12 13 14 12 10 10 8 10 15 10 9 15 12 10 12 12 15 18 19 16 15 13 6 2 1 -3 2 2 -2 2 7 8 8 8 5 4 11 11 3 5 7 4 6 7 11 13 3 -2 -3 -2 7 5 -1 -1 1
5 4 3 1 0 2 4 9 14 12 8 8 7 8 9 7 8 9 8 10 11 10 9 8 6 6 6 7 9 10 9 9 9 11 13 15 14 12 11 9 12 14 7 8 15 15 11 9 13 15 15 18 20 18 16 10 5 3 1 3 4 -3 -8 0 10 11 11 9 3 6 5 1 6 4 -1 -1 3 15 17 5 2 -1 -3 4 4 1 1 1
5 5 4 2 1 1 3 6 12 13 9 8 7 8 8 8 8 8 7 9 11 11 10 8 6 6 7 7 8 9 9 8 9 10 11 14 15 15 13 10 11 11 9 10 12 16 16 10 11 13 12 15 20 20 19 15 9 5 4 3 2 2 -4 -7 -4 -8 -8 -5 -7 0 6 7 7 -1 1 8 9 17 17 8 6 1 -1 5 7 4 0 2
4 6 5 3 1 0 2 5 10 13 10 8 8 8 7 7 8 9 8 7 9 11 11 10 8 6 6 7 7 8 9 8 8 9 9 11 13 16 14 11 10 10 11 11 8 12 16 13 12 11 9 11 15 19 18 17 17 12 11 8 -1 -2 -2 -5 -1 -0 -6 -11 -5 7 7 6 8 5 15 25 19 20 19 10 6 4 7 10 7 2 -1 6
4 5 6 5 2 0 1 4 8 12 11 9 8 7 6 7 8 8 8 8 7 8 10 10 9 7 5 5 5 6 9 9 10 9 9 8 10 14 13 9 12 15 15 14 10 9 8 9 14 12 9 10 11 14 15 16 18 10 10 17 8 -1 -2 -7 -7 3 12 8 5 7 2 2 5 2 13 22 16 16 16 12 10 8 11 8 1 2 4 7
4 4 6 6 5 2 1 3 7 11 11 10 8 6 6 7 8 8 8 9 8 8 9 8 9 9 7 6 6 7 7 8 11 11 11 12 11 13 11 10 14 14 11 12 11 11 9 8 13 14 11 10 10 12 12 18 22 10 6 15 13 8 11 14 8 -3 -0 9 8 4 5 10 10 10 18 16 7 9 8 6 7 6 7 5 2 5 5 5
6 4 5 6 5 3 2 3 7 11 11 10 8 7 6 7 8 8 8 9 9 9 9 8 8 9 8 7 6 7 8 9 12 12 14 16 12 11 12 13 13 9 7 10 11 14 16 10 10 18 15 7 11 14 10 16 22 15 13 13 12 14 7 6 18 13 1 3 5 3 5 5 4 11 20 12 4 7 3 2 7 8 7 6 5 5 4 8
8 5 4 6 6 4 3 3 6 10 11 10 8 7 7 7 7 8 8 9 9 9 10 9 8 6 7 7 6 7 9 11 13 13 16 18 13 10 12 9 8 7 6 10 12 12 14 9 2 12 18 11 16 19 10 12 19 19 23 16 8 14 8 -7 -2 3 -4 -7 -3 3 4 -4 -6 5 15 10 3 1 1 7 11 7 5 6 5 3 4 11
8 6 4 6 7 5 3 3 5 8 10 10 9 6 6 8 7 7 9 10 9 10 11 10 9 7 6 6 7 7 6 10 11 10 18 22 11 5 8 6 6 9 8 12 16 12 15 16 5 7 15 11 17 23 11 6 13 13 21 24 14 12 16 12 7 4 3 -2 -10 -8 -3 -7 -4 8 15 8 0 0 6 11 9 7 10 8 0 -0 5 9
8 6 5 5 6 6 4 3 5 7 10 10 9 7 6 8 8 7 8 10 11 11 11 10 9 8 7 6 7 6 5 10 9 8 19 23 9 1 6 7 6 9 12 16 19 15 13 16 10 8 9 1 6 19 16 10 14 14 14 20 24 23 20 19 16 16 27 27 11 2 2 2 4 10 11 5 2 5 6 5 8 10 8 3 -1 0 3 6
8 6 5 4 6 6 5 4 4 7 11 10 8 7 7 8 9 7 7 9 11 11 11 11 8 6 6 5 6 6 6 9 7 8 21 20 7 4 7 8 8 9 12 17 20 19 16 15 14 10 9 7 8 13 16 15 15 21 22 13 8 10 7 5 3 -2 1 9 13 11 11 13 14 11 6 3 4 6 4 3 8 8 4 2 2 0 2 10
8 7 6 4 4 5 4 4 3 6 10 9 7 7 8 9 8 7 8 8 10 11 11 11 8 7 6 3 4 5 5 7 6 11 23 17 6 8 7 5 9 9 13 19 20 19 14 11 14 15 10 12 15 15 19 22 18 20 27 24 16 8 -1 -4 -1 -5 -11 -10 -2 2 2 9 14 7 2 4 5 5 3 3 4 3 3 3 -0 1 10 17
10 7 6 4 3 3 3 3 3 6 9 7 7 8 9 10 8 7 8 9 10 11 11 10 8 8 7 3 4 5 5 8 8 11 21 15 4 10 11 7 9 11 14 17 15 13 9 5 11 16 8 4 12 13 9 16 24 23 21 25 28 26 22 18 16 17 15 11 14 15 6 4 10 9 7 9 6 2 1 -0 -2 -0 4 2 -0 8 17 17
11 8 6 5 4 2 2 2 4 7 8 7 7 8 9 9 9 7 7 9 11 10 11 11 9 8 8 5 4 4 4 9 9 11 19 14 2 7 13 8 8 13 16 15 10 8 8 8 11 10 3 3 13 12 -1 1 14 18 20 25 22 16 21 27 23 20 20 17 19 20 11 5 8 7 5 4 1 0 1 -1 -2 2 4 2 5 14 19 16
12 9 7 5 5 4 2 2 4 7 8 7 7 10 9 8 9 8 7 7 10 11 11 10 9 9 8 6 5 4 4 6 6 8 16 14 6 7 10 5 5 13 15 11 6 0 -0 10 15 10 4 7 14 15 7 5 7 7 14 20 15 7 8 11 10 9 13 17 16 14 11 8 6 3 2 5 5 3 2 1 2 4 3 5 13 19 16 11
12 11 8 6 6 6 4 3 5 7 9 7 7 9 11 9 8 8 8 8 9 11 11 10 10 11 9 8 7 4 5 7 6 7 10 12 12 12 11 5 3 11 14 10 5 -3 -4 9 14 9 9 11 10 7 5 5 6 6 8 8 8 11 10 8 7 4 7 11 10 10 15 16 11 7 6 5 4 3 2 3 4 4 7 14 19 17 10 8
11 12 10 7 5 6 4 3 5 7 9 8 7 9 11 10 8 6 7 9 9 10 10 9 10 11 11 11 9 6 7 7 7 8 8 10 15 15 12 9 5 7 9 9 8 2 1 14 18 6 3 7 9 8 7 6 5 4 6 7 8 8 9 11 13 12 9 8 5 5 8 7 3 3 2 1 1 2 3 4 5 9 16 20 17 10 8 11
11 12 11 8 5 5 4 3 5 8 9 7 8 10 11 9 8 7 6 8 9 10 10 8 9 11 12 12 11 8 6 3 6 13 12 9 13 14 12 13 11 9 6 5 10 12 8 12 16 6 -2 1 10 14 11 11 11 9 8 9 7 5 7 10 11 9 6 4 3 4 4 3 2 1 1 1 2 3 5 8 13 19 22 18 10 7 10 14
11 12 12 10 7 5 4 4 7 8 8 7 7 11 12 9 7 7 6 8 10 10 9 7 8 12 12 11 10 8 5 3 6 13 12 6 10 14 12 11 8 7 12 10 6 12 15 10 6 8 5 2 5 9 9 11 13 14 12 9 7 5 3 2 4 5 4 3 3 2 3 4 2 0 3 4 6 9 13 16 20 21 17 9 5 8 13 14
11 11 12 11 9 7 5 6 8 8 6 7 8 10 11 9 7 6 6 8 10 11 11 8 9 12 11 10 9 6 5 7 7 7 4 2 8 11 9 10 6 -1 8 17 8 4 9 6 -1 -0 2 2 4 7 9 7 7 14 21 16 11 12 12 10 9 7 6 7 6 5 5 5 4 6 9 10 11 15 17 18 17 14 9 6 8 12 13 11
Height
5919 5920 5921 5921 5922 5923 5923 5924 5925 5926 5927 5928 5928 5929 5930 5931 5932 5933 5933 5934 5934 5935 5935 5935 5935 5936 5936 5937 5938 5938 5939 5940 5942 5942 5943 5943 5943 5943 5944 5944 5944 5944 5944 5944 5943 5943 5942 5942 5941 5941 5940 5940 5939 5939 5938 5938 5938 5937 5935 5935 5934 5933 5933 5931 5930 5930 5929 5929 5927 5927 5926 5925 5924 5923 5922 5922 5921 5920 5919 5918 5917 5916 5915 5915 5914 5913 5913 5912
5918 5919 5920 5920 5921 5922 5923 5923 5924 5925 5926 5926 5927 5928 5929 5930 5931 5932 5933 5933 5934 5935 5935 5935 5935 5936 5936 5937 5938 5938 5939 5940 5941 5943 5943 5943 5943 5944 5944 5945 5945 5945 5946 5945 5945 5944 5944 5943 5943 5942 5942 5941 5940 5940 5940 5939 5939 5938 5937 5937 5935 5934 5934 5933 5932 5932 5931 5930 5929 5929 5928 5927 5926 5925 5924 5923 5923 5922 5921 5920 5919 5918 5917 5916 5915 5914 5914 5913
5917 5918 5919 5919 5920 5921 5922 5922 5923 5924 5925 5925 5926 5927 5928 5929 5930 5931 5932 5933 5933 5934 5935 5935 5936 5936 5936 5937 5938 5938 5939 5940 5941 5943 5944 5944 5944 5944 5944 5945 5945 5946 5947 5946 5946 5946 5945 5945 5944 5944 5943 5942 5942 5942 5941 5941 5940 5939 5939 5938 5937 5936 5936 5935 5934 5933 5932 5931 5931 5930 5929 5929 5928 5927 5926 5925 5924 5923 5922 5921 5920 5919 5918 5917 5916 5915 5914 5914
5915 5916 5917 5918 5919 5920 5921 5921 5922 5923 5924 5924 5925 5926 5927 5928 5929 5930 5931 5932 5933 5933 5934 5935 5936 5936 5936 5937 5938 5938 5938 5939 5941 5942 5943 5944 5944 5944 5945 5945 5946 5946 5947 5947 5947 5947 5946 5946 5945 5945 5944 5944 5943 5943 5942 5942 5941 5941 5940 5939 5938 5937 5937 5936 5936 5935 5934 5932 5932 5931 5931 5930 5929 5928 5927 5926 5925 5924 5923 5922 5921 5920 5919 5918 5917 5916 5915 5915
5914 5915 5916 5917 5917 5918 5919 5920 5921 5921 5922 5923 5924 5925 5926 5927 5928 5929 5930 5931 5932 5932 5933 5934 5935 5936 5936 5937 5938 5938 5938 5939 5940 5941 5943 5944 5945 5945 5945 5945 5945 5946 5947 5947 5947 5947 5947 5947 5947 5946 5946 5945 5945 5944 5944 5943 5943 5942 5941 5940 5939 5939 5938 5938 5937 5936 5935 5934 5933 5933 5932 5932 5931 5930 5929 5928 5927 5926 5925 5923 5922 5920 5919 5918 5917 5917 5917 5916
5912 5913 5914 5915 5916 5917 5918 5919 5920 5920 5921 5922 5923 5923 5924 5925 5926 5927 5928 5929 5930 5931 5932 5933 5934 5935 5936 5936 5937 5938 5938 5939 5939 5940 5942 5943 5944 5945 5945 5945 5945 5946 5947 5947 5947 5948 5948 5948 5948 5948 5947 5947 5946 5946 5945 5944 5944 5943 5942 5941 5940 5940 5940 5939 5938 5937 5937 5936 5935 5934 5934 5933 5932 5931 5930 5930 5928 5927 5926 5925 5923 5922 5920 5919 5918 5918 5918 5917
5911 5912 5913 5914 5915 5915 5916 5917 5918 5919 5920 5921 5921 5922 5923 5924 5925 5926 5927 5928 5929 5930 5931 5932 5933 5934 5935 5936 5937 5937 5938 5938 5939 5940 5941 5942 5944 5945 5945 5945 5945 5946 5946 5947 5948 5948 5948 5949 5949 5949 5948 5948 5947 5947 5946 5945 5944 5944 5943 5942 5941 5941 5940 5940 5939 5939 5938 5937 5937 5936 5935 5934 5933 5932 5932 5931 5930 5928 5927 5926 5925 5923 5922 5921 5919 5919 5919 5919
5909 5910 5911 5912 5913 5914 5915 5916 5917 5917 5918 5919 5920 5921 5921 5922 5923 5924 5925 5926 5927 5929 5930 5931 5932 5933 5934 5935 5936 5937 5937 5938 5939 5940 5940 5941 5943 5944 5945 5945 5945 5946 5946 5947 5948 5948 5949 5949 5949 5949 5949 5949 5948 5948 5947 5946 5946 5945 5944 5943 5942 5942 5941 5941 5940 5940 5939 5939 5938 5938 5937 5935 5934 5934 5933 5932 5931 5930 5928 5927 5926 5925 5924 5922 5921 5921 5920 5920
5907 5908 5909 5910 5911 5912 5913 5914 5915 5916 5917 5918 5918 5919 5920 5921 5922 5923 5924 5925 5926 5927 5928 5930 5931 5932 5933 5934 5935 5936 5936 5937 5938 5939 5940 5940 5941 5943 5944 5944 5945 5945 5946 5947 5947 5948 5949 5949 5950 5950 5950 5949 5949 5948 5948 5947 5947 5946 5946 5945 5944 5943 5942 5941 5941 5940 5940 5940 5939 5939 5938 5936 5935 5935 5934 5933 5932 5931 5930 5929 5928 5926 5925 5924 5923 5922 5921 5921
5905 5906 5907 5908 5909 5910 5911 5912 5913 5914 5915 5916 5917 5918 5918 5919 5920 5921 5922 5923 5924 5926 5927 5928 5929 5931 5932 5933 5934 5934 5935 5936 5937 5938 5939 5939 5940 5942 5943 5944 5944 5945 5946 5946 5947 5948 5949 5949 5950 5950 5950 5950 5949 5949 5948 5948 5948 5948 5947 5946 5945 5944 5944 5943 5942 5941 5941 5941 5940 5940 5939 5938 5937 5936 5935 5934 5933 5932 5931 5930 5929 5928 5927 5926 5925 5924 5923 5922
5903 5904 5905 5906 5907 5908 5909 5910 5911 5912 5913 5914 5915 5916 5917 5918 5919 5920 5921 5922 5923 5924 5925 5926 5927 5929 5930 5931 5932 5932 5934 5935 5936 5937 5937 5938 5939 5940 5942 5943 5944 5944 5945 5946 5947 5947 5948 5949 5949 5950 5950 5950 5950 5949 5949 5949 5949 5948 5948 5947 5946 5946 5945 5944 5943 5942 5942 5941 5941 5940 5940 5939 5938 5937 5936 5935 5934 5933 5932 5931 5930 5929 5928 5927 5926 5925 5924 5922
5901 5902 5903 5904 5905 5906 5907 5908 5909 5910 5911 5912 5913 5914 5915 5916 5917 5918 5919 5920 5921 5922 5923 5924 5925 5927 5928 5929 5930 5931 5932 5934 5934 5935 5936 5937 5938 5939 5941 5942 5943 5944 5944 5945 5946 5947 5947 5948 5949 5949 5949 5950 5950 5949 5949 5949 5949 5949 5948 5948 5947 5947 5946 5946 5945 5944 5943 5942 5942 5941 5940 5939 5938 5938 5937 5936 5935 5934 5934 5933 5931 5930 5929 5928 5927 5926 5924 5923
5899 5900 5901 5902 5903 5904 5905 5906 5907 5908 5909 5910 5911 5912 5913 5914 5915 5916 5917 5918 5919 5920 5921 5922 5923 5925 5926 5927 5928 5929 5930 5932 5933 5934 5935 5936 5937 5938 5939 5941 5943 5943 5944 5944 5945 5946 5947 5947 5948 5949 5949 5949 5949 5949 5949 5949 5949 5949 5948 5948 5948 5948 5947 5947 5946 5945 5944 5944 5942 5942 5941 5939 5939 5939 5938 5937 5937 5936 5935 5934 5933 5932 5931 5929 5928 5927 5925 5924
5896 5898 5899 5900 5901 5902 5903 5904 5905 5906 5907 5908 5909 5910 5911 5912 5913 5914 5915 5916 5917 5918 5919 5920 5921 5922 5924 5925 5926 5927 5929 5930 5931 5932 5933 5935 5936 5937 5938 5939 5942 5942 5943 5943 5944 5945 5946 5947 5948 5948 5949 5949 5949 5949 5949 5949 5949 5948 5948 5948 5948 5948 5947 5947 5947 5946 5946 5945 5944 5943 5942 5940 5939 5940 5939 5938 5938 5937 5936 5935 5934 5933 5932 5930 5929 5928 5927 5926
5894 5895 5896 5897 5898 5900 5901 5902 5903 5903 5904 5906 5907 5908 5909 5910 5911 5912 5913 5914 5915 5916 5917 5918 5919 5920 5922 5923 5924 5925 5927 5928 5929 5931 5932 5933 5934 5935 5936 5938 5940 5941 5942 5943 5943 5944 5945 5946 5947 5947 5948 5949 5949 5949 5948 5949 5948 5948 5949 5949 5949 5948 5947 5947 5947 5947 5946 5946 5945 5944 5942 5940 5940 5941 5940 5939 5939 5938 5937 5936 5935 5934 5933 5931 5930 5929 5928 5926
5891 5892 5893 5894 5896 5897 5898 5900 5900 5901 5902 5903 5904 5905 5907 5908 5909 5910 5911 5912 5913 5914 5915 5916 5917 5919 5920 5920 5922 5923 5925 5926 5927 5929 5931 5932 5933 5933 5935 5936 5938 5940 5941 5942 5942 5943 5944 5945 5946 5947 5947 5948 5949 5949 5949 5949 5949 5949 5949 5949 5949 5948 5948 5948 5947 5947 5946 5946 5946 5945 5944 5942 5942 5941 5941 5940 5939 5939 5938 5937 5936 5935 5934 5932 5931 5929 5928 5927
5888 5889 5890 5891 5893 5894 5895 5897 5898 5898 5899 5901 5902 5903 5904 5905 5906 5907 5909 5910 5911 5912 5913 5914 5915 5917 5918 5918 5920 5921 5922 5924 5925 5927 5929 5930 5931 5932 5933 5935 5936 5938 5940 5941 5942 5942 5943 5944 5945 5946 5946 5947 5948 5948 5949 5950 5950 5950 5949 5949 5949 5949 5948 5948 5947 5947 5947 5946 5946 5945 5945 5944 5943 5942 5941 5941 5940 5939 5938 5937 5937 5935 5934 5932 5931 5930 5928 5927
5885 5886 5888 5889 5890 5891 5892 5894 5895 5895 5896 5898 5899 5900 5901 5903 5904 5905 5906 5907 5909 5910 5911 5912 5913 5915 5915 5916 5917 5918 5920 5921 5923 5925 5926 5928 5929 5930 5931 5932 5933 5935 5937 5939 5941 5942 5943 5944 5944 5945 5946 5947 5947 5948 5949 5949 5949 5949 5949 5949 5949 5949 5949 5948 5948 5947 5947 5946 5946 5945 5945 5944 5943 5942 5941 5941 5940 5939 5938 5937 5937 5936 5934 5933 5931 5929 5928 5927
5883 5884 5885 5886 5887 5888 5890 5891 5892 5892 5893 5895 5896 5897 5898 5900 5901 5903 5904 5905 5906 5907 5909 5910 5911 5912 5913 5914 5915 5916 5918 5919 5921 5922 5924 5925 5927 5928 5929 5930 5931 5933 5934 5937 5939 5940 5941 5943 5943 5944 5945 5946 5946 5946 5947 5947 5947 5947 5948 5948 5948 5949 5949 5948 5948 5947 5947 5947 5946 5946 5945 5944 5943 5942 5941 5941 5940 5939 5938 5937 5937 5936 5934 5933 5931 5929 5928 5926
5880 5881 5882 5883 5884 5886 5887 5888 5889 5889 5890 5891 5893 5894 5895 5897 5899 5900 5901 5903 5904 5905 5906 5907 5909 5910 5911 5912 5913 5914 5915 5917 5918 5920 5922 5923 5925 5926 5927 5928 5929 5930 5931 5934 5935 5937 5940 5941 5942 5944 5944 5944 5944 5945 5945 5946 5946 5947 5947 5946 5947 5948 5948 5948 5947 5947 5947 5946 5946 5945 5945 5944 5943 5942 5941 5941 5940 5940 5939 5938 5937 5936 5934 5933 5931 5929 5928 5926
5877 5878 5879 5880 5882 5883 5884 5886 5886 5887 5887 5888 5890 5891 5892 5894 5895 5897 5898 5900 5901 5903 5904 5905 5906 5907 5908 5909 5910 5911 5913 5914 5916 5917 5919 5921 5922 5924 5924 5926 5927 5927 5929 5931 5932 5935 5938 5939 5941 5942 5941 5941 5942 5943 5944 5945 5945 5946 5946 5945 5946 5947 5947 5947 5947 5946 5946 5946 5946 5945 5945 5944 5943 5941 5941 5940 5940 5940 5939 5938 5937 5935 5934 5933 5931 5929 5927 5926
5875 5876 5877 5878 5879 5880 5882 5883 5884 5885 5885 5886 5887 5888 5890 5891 5892 5894 5895 5897 5898 5900 5901 5903 5904 5905 5906 5907 5908 5909 5911 5912 5913 5915 5916 5918 5919 5921 5922 5923 5925 5926 5927 5928 5930 5933 5935 5936 5940 5940 5938 5940 5941 5942 5943 5943 5944 5945 5944 5944 5945 5946 5946 5945 5945 5945 5945 5945 5945 5944 5944 5944 5942 5941 5940 5940 5940 5940 5939 5938 5937 5935 5934 5932 5930 5928 5927 5925
5872 5873 5874 5875 5876 5877 5879 5881 5882 5882 5883 5884 5885 5886 5887 5888 5889 5891 5892 5894 5896 5897 5898 5900 5901 5902 5903 5904 5906 5908 5909 5910 5910 5911 5913 5915 5916 5917 5919 5921 5922 5924 5925 5927 5929 5931 5932 5934 5937 5937 5937 5939 5939 5940 5941 5942 5943 5943 5943 5943 5944 5945 5945 5944 5944 5944 5944 5944 5944 5944 5943 5942 5941 5941 5940 5939 5938 5938 5938 5938 5937 5935 5934 5932 5929 5927 5926 5924
5869 5870 5872 5873 5873 5874 5876 5878 5879 5880 5881 5882 5883 5884 5885 5886 5887 5888 5890 5891 5893 5895 5895 5897 5898 5899 5900 5903 5905 5906 5906 5907 5907 5909 5911 5912 5913 5915 5917 5918 5920 5921 5923 5925 5926 5927 5929 5930 5932 5935 5936 5937 5938 5938 5940 5941 5942 5942 5942 5942 5942 5943 5943 5943 5943 5943 5944 5944 5943 5943 5942 5940 5940 5939 5938 5938 5938 5937 5937 5937 5936 5935 5933 5931 5929 5927 5925 5924
5866 5868 5869 5870 5871 5872 5873 5875 5877 5878 5879 5880 5881 5882 5883 5884 5885 5886 5888 5889 5890 5892 5893 5894 5895 5896 5898 5901 5902 5903 5903 5904 5905 5906 5908 5909 5911 5912 5914 5915 5917 5919 5921 5923 5923 5925 5926 5926 5930 5934 5934 5935 5936 5936 5938 5940 5940 5940 5941 5941 5941 5942 5942 5943 5943 5943 5943 5943 5941 5941 5941 5940 5938 5936 5934 5936 5938 5936 5936 5936 5935 5934 5933 5931 5929 5926 5925 5923
5863 5865 5867 5868 5869 5869 5871 5872 5874 5875 5876 5878 5879 5880 5881 5882 5883 5884 5886 5887 5888 5890 5890 5891 5892 5894 5896 5898 5899 5900 5901 5901 5902 5904 5905 5907 5908 5910 5911 5913 5915 5916 5918 5919 5921 5923 5922 5923 5929 5931 5930 5932 5934 5934 5936 5938 5939 5939 5938 5939 5940 5941 5941 5941 5942 5942 5942 5941 5940 5940 5940 5939 5938 5936 5934 5935 5937 5936 5935 5935 5934 5933 5932 5930 5928 5926 5924 5923
5860 5862 5864 5865 5866 5867 5868 5870 5871 5873 5874 5876 5877 5878 5879 5880 5881 5882 5884 5885 5886 5887 5888 5889 5890 5892 5893 5895 5896 5897 5898 5899 5900 5902 5904 5905 5906 5908 5909 5911 5913 5914 5915 5917 5919 5919 5919 5922 5926 5928 5928 5929 5930 5933 5935 5936 5937 5936 5935 5937 5939 5939 5939 5940 5940 5940 5940 5939 5939 5939 5939 5938 5937 5936 5935 5936 5936 5936 5935 5934 5933 5932 5931 5929 5926 5924 5923 5922
5857 5860 5861 5863 5864 5865 5866 5867 5869 5871 5872 5873 5874 5876 5877 5878 5879 5881 5882 5883 5883 5884 5886 5887 5888 5890 5891 5892 5894 5895 5896 5897 5899 5900 5902 5903 5904 5906 5907 5909 5911 5912 5913 5915 5916 5917 5918 5920 5922 5924 5925 5926 5928 5931 5931 5932 5935 5933 5933 5936 5937 5937 5938 5938 5938 5938 5938 5938 5938 5938 5938 5938 5937 5935 5935 5936 5935 5935 5934 5933 5933 5931 5930 5928 5925 5922 5921 5921
5854 5857 5858 5860 5861 5862 5863 5865 5866 5868 5870 5871 5872 5874 5875 5876 5878 5879 5880 5881 5881 5882 5883 5885 5886 5888 5889 5890 5892 5893 5895 5896 5897 5899 5900 5901 5902 5904 5905 5907 5908 5909 5910 5913 5914 5914 5915 5917 5918 5920 5922 5923 5925 5926 5926 5930 5932 5931 5932 5934 5934 5935 5936 5936 5936 5936 5936 5935 5936 5936 5936 5936 5936 5935 5935 5935 5934 5933 5932 5932 5932 5930 5928 5926 5922 5919 5919 5919
5851 5853 5856 5857 5859 5860 5861 5862 5864 5866 5867 5869 5870 5872 5873 5875 5876 5877 5878 5879 5880 5881 5882 5883 5885 5886 5888 5889 5891 5892 5893 5894 5896 5897 5898 5899 5901 5902 5903 5904 5906 5907 5908 5910 5911 5911 5913 5915 5916 5917 5919 5920 5921 5922 5924 5927 5928 5928 5931 5933 5932 5933 5934 5934 5934 5934 5933 5933 5933 5934 5933 5933 5934 5934 5934 5933 5933 5932 5931 5932 5931 5929 5926 5922 5920 5919 5919 5919
5848 5850 5852 5854 5856 5858 5859 5860 5862 5863 5865 5867 5868 5870 5871 5873 5874 5875 5876 5877 5878 5879 5880 5882 5883 5885 5886 5888 5889 5890 5891 5893 5894 5895 5896 5897 5899 5900 5901 5902 5903 5905 5906 5908 5909 5910 5912 5914 5915 5915 5916 5917 5918 5920 5923 5924 5925 5927 5930 5931 5930 5930 5931 5932 5932 5931 5932 5932 5931 5931 5931 5931 5931 5932 5932 5932 5932 5932 5931 5930 5929 5927 5924 5920 5918 5918 5918 5918
5844 5847 5849 5851 5853 5855 5856 5858 5859 5861 5863 5865 5866 5868 5869 5871 5872 5873 5874 5875 5877 5878 5879 5881 5882 5883 5885 5886 5888 5889 5890 5891 5892 5893 5894 5896 5897 5898 5899 5900 5901 5903 5905 5906 5908 5909 5910 5912 5913 5912 5913 5914 5916 5918 5920 5921 5923 5925 5927 5929 5929 5929 5929 5929 5929 5929 5930 5931 5929 5930 5930 5928 5928 5929 5929 5930 5931 5931 5930 5928 5926 5924 5922 5920 5918 5918 5918 5918
5841 5843 5846 5848 5850 5853 5854 5856 5857 5859 5860 5862 5864 5865 5867 5868 5870 5871 5872 5873 5875 5876 5878 5879 5880 5881 5883 5884 5886 5887 5888 5889 5890 5892 5893 5894 5896 5896 5897 5898 5899 5901 5903 5904 5905 5907 5909 5910 5911 5910 5911 5912 5913 5916 5917 5919 5921 5922 5925 5926 5927 5928 5928 5927 5928 5928 5928 5929 5927 5927 5927 5926 5927 5927 5927 5929 5930 5929 5927 5925 5923 5922 5920 5919 5918 5917 5918 5918
5837 5840 5843 5845 5848 5850 5852 5853 5855 5856 5858 5860 5862 5863 5865 5866 5867 5869 5870 5872 5873 5875 5876 5877 5879 5880 5881 5883 5884 5885 5887 5888 5889 5890 5892 5893 5894 5895 5896 5896 5897 5899 5900 5901 5903 5905 5907 5908 5909 5908 5908 5909 5911 5913 5915 5917 5919 5920 5922 5924 5925 5926 5927 5926 5928 5928 5928 5927 5924 5924 5925 5924 5926 5926 5925 5927 5927 5926 5924 5922 5921 5920 5919 5918 5918 5917 5917 5916
5833 5836 5839 5842 5845 5848 5849 5851 5852 5854 5855 5857 5859 5861 5863 5864 5865 5866 5868 5870 5872 5873 5874 5876 5877 5878 5880 5881 5883 5884 5885 5886 5888 5889 5890 5891 5892 5893 5894 5894 5896 5897 5898 5900 5901 5902 5904 5905 5905 5905 5905 5907 5908 5911 5913 5914 5916 5917 5919 5920 5921 5923 5925 5925 5925 5925 5926 5926 5923 5922 5923 5923 5924 5923 5922 5924 5924 5922 5921 5919 5919 5918 5917 5917 5917 5916 5916 5914
5829 5833 5835 5839 5842 5844 5846 5848 5850 5851 5853 5855 5857 5859 5860 5861 5862 5864 5866 5868 5870 5871 5872 5874 5875 5877 5878 5880 5881 5883 5884 5885 5886 5887 5888 5889 5890 5891 5892 5892 5893 5895 5896 5898 5898 5900 5902 5903 5902 5902 5904 5905 5906 5908 5909 5910 5914 5915 5915 5916 5918 5920 5922 5922 5922 5922 5923 5924 5923 5922 5921 5922 5922 5921 5920 5921 5920 5919 5918 5918 5917 5917 5916 5916 5915 5915 5913 5912
5825 5829 5832 5835 5839 5841 5843 5845 5847 5849 5850 5852 5854 5856 5858 5859 5860 5863 5865 5866 5868 5869 5871 5872 5874 5875 5877 5879 5880 5881 5883 5884 5885 5886 5887 5887 5888 5889 5889 5890 5891 5893 5894 5895 5896 5897 5899 5900 5900 5900 5902 5902 5903 5904 5905 5906 5911 5911 5911 5914 5916 5916 5918 5920 5920 5921 5920 5921 5922 5921 5920 5921 5922 5920 5919 5919 5917 5916 5916 5916 5915 5915 5914 5914 5913 5912 5911 5909
5821 5825 5828 5832 5836 5838 5840 5843 5844 5846 5848 5850 5852 5854 5855 5856 5858 5861 5863 5864 5866 5867 5869 5870 5872 5874 5876 5877 5878 5879 5881 5882 5883 5884 5885 5886 5886 5887 5887 5888 5889 5890 5891 5892 5894 5895 5897 5898 5898 5899 5900 5900 5900 5902 5903 5904 5907 5907 5908 5911 5912 5913 5917 5917 5917 5919 5919 5919 5920 5920 5918 5919 5919 5918 5918 5917 5915 5914 5915 5914 5914 5913 5912 5912 5911 5910 5908 5906
5817 5821 5824 5828 5832 5834 5837 5840 5842 5843 5845 5848 5850 5852 5853 5854 5856 5859 5861 5863 5864 5865 5867 5868 5870 5872 5874 5875 5876 5878 5879 5880 5881 5883 5883 5884 5885 5885 5886 5887 5888 5889 5889 5891 5892 5893 5895 5896 5897 5897 5897 5898 5899 5900 5901 5902 5904 5905 5906 5908 5909 5911 5914 5914 5913 5916 5918 5917 5918 5918 5917 5917 5917 5915 5916 5916 5914 5913 5913 5913 5912 5911 5911 5910 5909 5907 5906 5904
5813 5816 5820 5824 5828 5831 5834 5836 5839 5841 5843 5845 5848 5849 5850 5852 5854 5857 5859 5861 5862 5863 5865 5866 5868 5870 5872 5873 5875 5876 5878 5879 5880 5881 5882 5883 5883 5884 5884 5885 5886 5887 5888 5890 5890 5891 5892 5893 5894 5894 5895 5897 5897 5898 5899 5901 5901 5903 5904 5905 5906 5908 5910 5911 5911 5912 5914 5915 5916 5916 5915 5915 5914 5914 5914 5914 5913 5912 5912 5911 5911 5910 5909 5908 5906 5905 5903 5901
5808 5812 5816 5820 5824 5827 5830 5833 5836 5838 5841 5843 5845 5846 5847 5850 5853 5855 5857 5859 5860 5861 5863 5864 5866 5868 5870 5871 5873 5874 5876 5877 5879 5879 5880 5881 5882 5883 5883 5884 5885 5886 5887 5888 5889 5890 5890 5891 5893 5893 5894 5897 5897 5895 5896 5898 5899 5900 5901 5903 5905 5907 5908 5909 5910 5910 5911 5913 5913 5914 5913 5912 5912 5913 5913 5912 5911 5911 5910 5909 5909 5908 5907 5905 5904 5902 5900 5897
5804 5808 5812 5816 5820 5824 5827 5830 5833 5836 5838 5840 5842 5843 5845 5848 5851 5853 5855 5856 5858 5859 5861 5863 5864 5866 5868 5869 5871 5873 5875 5876 5877 5878 5879 5880 5880 5881 5882 5883 5884 5885 5886 5887 5888 5888 5889 5890 5891 5891 5893 5896 5894 5892 5894 5896 5896 5897 5899 5901 5904 5906 5907 5908 5909 5909 5909 5909 5910 5911 5910 5909 5909 5911 5911 5910 5910 5909 5908 5908 5907 5906 5904 5903 5901 5899 5897 5894
5799 5803 5808 5813 5817 5821 5824 5827 5830 5833 5835 5837 5839 5841 5843 5846 5848 5851 5853 5854 5856 5857 5859 5861 5862 5864 5866 5868 5870 5872 5873 5875 5876 5877 5878 5878 5879 5880 5881 5882 5883 5884 5885 5886 5886 5887 5888 5889 5890 5891 5892 5893 5892 5892 5893 5894 5895 5896 5897 5899 5901 5903 5905 5905 5907 5907 5907 5907 5907 5908 5908 5906 5907 5909 5909 5908 5908 5907 5907 5906 5905 5903 5902 5901 5899 5896 5894 5892
5795 5800 5804 5809 5813 5817 5820 5824 5828 5830 5832 5835 5836 5838 5841 5843 5846 5848 5850 5852 5854 5856 5857 5859 5861 5863 5865 5866 5868 5870 5872 5873 5874 5875 5876 5877 5878 5879 5880 5881 5882 5883 5884 5885 5885 5886 5888 5889 5890 5891 5892 5893 5892 5892 5892 5892 5893 5894 5896 5897 5898 5900 5902 5903 5904 5903 5904 5906 5906 5906 5906 5904 5905 5907 5906 5906 5906 5905 5905 5904 5903 5901 5900 5898 5896 5893 5891 5889
5790 5795 5800 5805 5809 5813 5817 5821 5824 5827 5829 5832 5833 5836 5838 5841 5843 5846 5848 5850 5852 5854 5855 5857 5860 5861 5863 5865 5867 5869 5871 5872 5873 5874 5875 5876 5877 5878 5879 5880 5881 5882 5883 5884 5884 5886 5887 5889 5889 5890 5892 5894 5893 5892 5892 5891 5892 5893 5894 5895 5897 5899 5900 5901 5903 5902 5903 5904 5903 5903 5903 5902 5903 5905 5903 5903 5903 5903 5903 5902 5900 5899 5897 5896 5894 5891 5888 5886
5786 5791 5795 5800 5805 5810 5814 5818 5821 5824 5826 5829 5831 5833 5836 5839 5841 5844 5846 5848 5850 5852 5854 5856 5858 5860 5862 5864 5866 5868 5869 5871 5872 5872 5873 5874 5875 5877 5879 5880 5881 5882 5883 5883 5884 5886 5887 5888 5888 5889 5890 5891 5891 5891 5892 5891 5892 5892 5893 5894 5896 5898 5899 5900 5901 5901 5901 5901 5901 5901 5901 5901 5902 5902 5901 5901 5901 5901 5900 5899 5898 5896 5895 5893 5891 5888 5886 5884
5781 5786 5791 5797 5802 5806 5811 5815 5818 5821 5823 5825 5828 5831 5834 5836 5839 5842 5844 5846 5848 5850 5852 5854 5856 5858 5860 5863 5865 5867 5868 5870 5871 5871 5872 5873 5874 5876 5878 5879 5880 5881 5882 5883 5884 5885 5886 5887 5888 5888 5889 5889 5889 5891 5892 5891 5892 5892 5892 5894 5895 5897 5898 5899 5899 5898 5898 5899 5899 5900 5900 5900 5900 5900 5900 5900 5899 5898 5898 5896 5895 5894 5892 5890 5888 5886 5884 5882
5777 5782 5788 5794 5799 5804 5808 5812 5815 5818 5820 5823 5825 5829 5832 5834 5837 5840 5842 5844 5846 5849 5850 5852 5854 5857 5859 5861 5863 5865 5866 5868 5870 5870 5871 5872 5873 5875 5877 5878 5880 5880 5881 5883 5884 5885 5886 5886 5887 5888 5889 5889 5889 5891 5891 5891 5892 5892 5892 5893 5895 5896 5897 5897 5898 5897 5897 5898 5898 5898 5899 5899 5899 5899 5898 5897 5897 5896 5895 5894 5892 5891 5890 5888 5886 5884 5882 5880
5773 5779 5785 5790 5795 5800 5805 5809 5812 5814 5817 5820 5823 5827 5829 5832 5835 5838 5840 5842 5845 5846 5848 5850 5853 5855 5857 5859 5861 5863 5864 5866 5868 5869 5870 5872 5873 5874 5875 5876 5878 5880 5881 5882 5883 5884 5885 5885 5886 5887 5888 5888 5889 5890 5891 5891 5891 5892 5892 5893 5894 5895 5895 5896 5897 5897 5897 5898 5898 5897 5898 5897 5897 5897 5896 5895 5894 5894 5893 5891 5890 5888 5887 5885 5883 5881 5880 5878
5769 5775 5780 5786 5791 5796 5801 5804 5807 5811 5814 5817 5821 5824 5827 5830 5833 5835 5838 5841 5842 5844 5847 5849 5851 5853 5855 5857 5860 5862 5863 5864 5865 5867 5869 5871 5872 5872 5874 5875 5877 5879 5880 5881 5882 5883 5884 5884 5886 5886 5886 5887 5889 5889 5890 5890 5891 5890 5891 5892 5893 5893 5894 5895 5895 5896 5896 5896 5896 5896 5895 5895 5895 5894 5894 5893 5892 5891 5890 5889 5887 5886 5885 5883 5881 5879 5878 5876
5766 5771 5777 5783 5788 5793 5797 5801 5804 5808 5812 5815 5819 5822 5825 5828 5830 5833 5836 5838 5840 5842 5845 5847 5849 5851 5853 5855 5858 5860 5861 5863 5864 5866 5869 5870 5870 5871 5873 5874 5876 5878 5879 5880 5882 5882 5883 5884 5885 5885 5884 5886 5888 5888 5889 5889 5889 5887 5887 5890 5891 5892 5892 5893 5893 5894 5894 5895 5894 5893 5893 5893 5893 5892 5891 5890 5889 5888 5887 5886 5885 5884 5882 5881 5879 5877 5876 5874
5762 5768 5774 5779 5784 5789 5794 5798 5802 5806 5810 5813 5817 5819 5822 5825 5828 5831 5834 5836 5838 5840 5842 5845 5847 5849 5851 5853 5855 5857 5859 5862 5864 5866 5868 5869 5869 5870 5872 5874 5875 5877 5878 5879 5881 5882 5882 5882 5883 5883 5883 5885 5886 5887 5887 5887 5886 5885 5884 5887 5889 5890 5890 5891 5891 5892 5892 5892 5892 5891 5890 5891 5890 5889 5889 5888 5887 5886 5885 5884 5882 5881 5880 5878 5877 5875 5874 5872